Location: American Medical Response
(33.3472°N, 96.5511°W)
Time: 19:11:11
(UTC+00:00)

Lacrosse 5 rocket - Pass Details

Date: 03 July 2022
Orbit: 456 x 628 km, 57.0° (Epoch: 08 August)

Event Time Altitude Azimuth Distance (km) Brightness Sun altitude
Rises 03:01:13 0° 329° (NNW) 2,595 6.2 -14.8°
Reaches altitude 10° 03:03:28 10° 338° (NNW) 1,737 4.9 -15.2°
Maximum altitude 03:07:08 38° 47° (NE) 822 2.1 -15.7°
Enters shadow 03:08:52 25° 97° (E) 1,106 2.4 -16.0°
